^^

..:: Storico WU ::..




Lo storico viene creato da WUnderground con i dati che la stazione Meteomincio invia al loro server. L' aggiornamento viene fatto ogni 5 minuti circa, tuttavia possono esserci intervalli pił ampi a causa di errori, interruzioni di servizio o problemi nell' invio tramite FTP.


Storico stazione MeteoMincio
Giorno Sommario per Marzo 23, 2022 Unità:  Inglese    Metrico   Entrambi
Giorno Settimana Mese Anno
  Max: Min: Media:
Temperatura: 68 °F 32 °F 49.5 °F
Dew Point: 37.4 °F 24.8 °F 29.8 °F
Umidità: 76% 25% 51%
Velocità vento: 8.7mph 0mph 3.9mph
Raffica: 13mph - -
Direzione- - West
Pressione: 30.5 in 30.4 in -
Precipitazioni: 0 in    
 
 
Tabulato Dati per Marzo 23, 2022
Ora Temperatura Dew Point Pressione Direzione Velocità vento Raffica Umidità Intensità pioggia (oraria) Info solare Situazione
00:04 37.4 °F 26.6 °F 30.5 in WNW 1.2 mph 2.5 mph 63% 0 in 0.00 W/m2 unknown
00:09 37.4 °F 26.6 °F 30.5 in WNW 0.6 mph 1.9 mph 63% 0 in 0.00 W/m2 unknown
00:14 37.4 °F 26.6 °F 30.5 in WNW 1.2 mph 1.2 mph 64% 0 in 0.00 W/m2 unknown
00:19 37.4 °F 26.6 °F 30.5 in WNW 1.2 mph 1.9 mph 63% 0 in 0.00 W/m2 unknown
00:24 37.4 °F 26.6 °F 30.5 in WNW 1.2 mph 2.5 mph 63% 0 in 0.00 W/m2 unknown
00:29 37.4 °F 26.6 °F 30.5 in WNW 1.2 mph 2.5 mph 64% 0 in 0.00 W/m2 unknown
00:34 37.4 °F 26.6 °F 30.5 in WNW 1.2 mph 1.9 mph 64% 0 in 0.00 W/m2 unknown
00:39 37.4 °F 26.6 °F 30.5 in WNW 1.2 mph 2.5 mph 64% 0 in 0.00 W/m2 unknown
00:44 37.4 °F 24.8 °F 30.5 in WNW 1.9 mph 2.5 mph 63% 0 in 0.00 W/m2 unknown
00:49 37.4 °F 24.8 °F 30.5 in WSW 3.7 mph 3.7 mph 65% 0 in 0.00 W/m2 unknown
00:54 35.6 °F 24.8 °F 30.5 in WSW 3.1 mph 3.7 mph 66% 0 in 0.00 W/m2 unknown
00:59 35.6 °F 24.8 °F 30.5 in WSW 2.5 mph 3.7 mph 66% 0 in 0.00 W/m2 unknown
01:04 35.6 °F 24.8 °F 30.5 in WSW 1.9 mph 3.1 mph 66% 0 in 0.00 W/m2 unknown
01:09 35.6 °F 24.8 °F 30.5 in WSW 1.2 mph 1.9 mph 65% 0 in 0.00 W/m2 unknown
01:14 37.4 °F 24.8 °F 30.5 in WSW 1.9 mph 2.5 mph 64% 0 in 0.00 W/m2 unknown
01:19 37.4 °F 24.8 °F 30.5 in WSW 1.9 mph 3.1 mph 64% 0 in 0.00 W/m2 unknown
01:24 35.6 °F 24.8 °F 30.5 in WSW 1.9 mph 3.7 mph 64% 0 in 0.00 W/m2 unknown
01:29 35.6 °F 24.8 °F 30.5 in WSW 2.5 mph 3.7 mph 65% 0 in 0.00 W/m2 unknown
01:34 35.6 °F 24.8 °F 30.5 in WSW 2.5 mph 3.7 mph 65% 0 in 0.00 W/m2 unknown
01:39 35.6 °F 24.8 °F 30.5 in WSW 2.5 mph 3.7 mph 66% 0 in 0.00 W/m2 unknown
01:44 35.6 °F 24.8 °F 30.5 in WSW 2.5 mph 3.7 mph 66% 0 in 0.00 W/m2 unknown
01:49 35.6 °F 24.8 °F 30.5 in WSW 2.5 mph 3.7 mph 66% 0 in 0.00 W/m2 unknown
01:54 35.6 °F 24.8 °F 30.5 in WSW 2.5 mph 3.7 mph 66% 0 in 0.00 W/m2 unknown
01:59 35.6 °F 24.8 °F 30.5 in SW 3.1 mph 3.7 mph 67% 0 in 0.00 W/m2 unknown
02:04 35.6 °F 24.8 °F 30.5 in SW 3.1 mph 3.7 mph 67% 0 in 0.00 W/m2 unknown
02:09 35.6 °F 24.8 °F 30.5 in SW 3.1 mph 3.7 mph 67% 0 in 0.00 W/m2 unknown
02:14 35.6 °F 24.8 °F 30.5 in WSW 3.1 mph 3.7 mph 67% 0 in 0.00 W/m2 unknown
02:19 35.6 °F 24.8 °F 30.5 in WSW 3.1 mph 3.7 mph 67% 0 in 0.00 W/m2 unknown
02:24 35.6 °F 24.8 °F 30.5 in WSW 3.1 mph 3.7 mph 67% 0 in 0.00 W/m2 unknown
02:29 35.6 °F 24.8 °F 30.5 in WSW 3.1 mph 3.7 mph 68% 0 in 0.00 W/m2 unknown
02:34 35.6 °F 24.8 °F 30.5 in WSW 4.3 mph 5 mph 69% 0 in 0.00 W/m2 unknown
02:39 33.8 °F 24.8 °F 30.5 in WSW 4.3 mph 5 mph 70% 0 in 0.00 W/m2 unknown
02:44 33.8 °F 24.8 °F 30.5 in WSW 3.7 mph 5 mph 70% 0 in 0.00 W/m2 unknown
02:49 33.8 °F 24.8 °F 30.5 in WSW 3.7 mph 5 mph 70% 0 in 0.00 W/m2 unknown
02:54 33.8 °F 26.6 °F 30.5 in WSW 5 mph 6.2 mph 70% 0 in 0.00 W/m2 unknown
02:59 33.8 °F 26.6 °F 30.5 in WSW 5 mph 6.2 mph 70% 0 in 0.00 W/m2 unknown
03:04 33.8 °F 26.6 °F 30.5 in WSW 4.3 mph 5 mph 70% 0 in 0.00 W/m2 unknown
03:09 33.8 °F 24.8 °F 30.5 in WSW 5 mph 6.2 mph 70% 0 in 0.00 W/m2 unknown
03:14 33.8 °F 24.8 °F 30.5 in WSW 5 mph 6.2 mph 70% 0 in 0.00 W/m2 unknown
03:19 33.8 °F 24.8 °F 30.5 in WSW 5 mph 6.2 mph 71% 0 in 0.00 W/m2 unknown
03:24 33.8 °F 26.6 °F 30.5 in West 5 mph 6.2 mph 72% 0 in 0.00 W/m2 unknown
03:29 33.8 °F 26.6 °F 30.5 in West 5 mph 5.6 mph 71% 0 in 0.00 W/m2 unknown
03:34 33.8 °F 24.8 °F 30.5 in WSW 3.7 mph 6.2 mph 71% 0 in 0.00 W/m2 unknown
03:39 33.8 °F 24.8 °F 30.5 in West 3.1 mph 5 mph 71% 0 in 0.00 W/m2 unknown
03:44 33.8 °F 24.8 °F 30.5 in West 3.7 mph 3.7 mph 71% 0 in 0.00 W/m2 unknown
03:49 33.8 °F 24.8 °F 30.5 in WSW 4.3 mph 5 mph 71% 0 in 0.00 W/m2 unknown
03:54 32 °F 24.8 °F 30.5 in WSW 4.3 mph 5 mph 72% 0 in 0.00 W/m2 unknown
03:59 33.8 °F 24.8 °F 30.5 in WSW 3.7 mph 5 mph 72% 0 in 0.00 W/m2 unknown
04:04 33.8 °F 24.8 °F 30.5 in WSW 4.3 mph 5 mph 72% 0 in 0.00 W/m2 unknown
04:09 33.8 °F 24.8 °F 30.5 in WSW 5 mph 5 mph 72% 0 in 0.00 W/m2 unknown
04:14 33.8 °F 26.6 °F 30.5 in WSW 3.7 mph 5 mph 72% 0 in 0.00 W/m2 unknown
04:19 33.8 °F 26.6 °F 30.5 in WSW 5 mph 6.2 mph 72% 0 in 0.00 W/m2 unknown
04:24 33.8 °F 26.6 °F 30.5 in WSW 5 mph 6.2 mph 72% 0 in 0.00 W/m2 unknown
04:29 33.8 °F 24.8 °F 30.5 in WSW 4.3 mph 6.2 mph 72% 0 in 0.00 W/m2 unknown
04:34 33.8 °F 24.8 °F 30.5 in WSW 5 mph 5 mph 73% 0 in 0.00 W/m2 unknown
04:39 32 °F 24.8 °F 30.5 in WSW 3.7 mph 4.3 mph 73% 0 in 0.00 W/m2 unknown
04:44 32 °F 24.8 °F 30.5 in WSW 4.3 mph 6.2 mph 73% 0 in 0.00 W/m2 unknown
04:49 32 °F 24.8 °F 30.5 in WSW 5 mph 6.2 mph 73% 0 in 0.00 W/m2 unknown
04:54 32 °F 24.8 °F 30.5 in WSW 4.3 mph 5 mph 73% 0 in 0.00 W/m2 unknown
04:59 32 °F 24.8 °F 30.5 in WSW 3.7 mph 5 mph 73% 0 in 0.00 W/m2 unknown
05:04 32 °F 24.8 °F 30.5 in WSW 4.3 mph 5 mph 73% 0 in 0.00 W/m2 unknown
05:09 32 °F 24.8 °F 30.5 in WSW 5 mph 5 mph 73% 0 in 0.00 W/m2 unknown
05:14 32 °F 24.8 °F 30.5 in WSW 4.3 mph 6.2 mph 74% 0 in 0.00 W/m2 unknown
05:19 32 °F 24.8 °F 30.5 in WSW 5 mph 6.2 mph 74% 0 in 0.00 W/m2 unknown
05:24 32 °F 24.8 °F 30.5 in West 3.7 mph 6.2 mph 75% 0 in 0.00 W/m2 unknown
05:29 32 °F 24.8 °F 30.5 in WSW 3.7 mph 5 mph 75% 0 in 0.00 W/m2 unknown
05:34 32 °F 24.8 °F 30.5 in WSW 4.3 mph 5 mph 75% 0 in 0.00 W/m2 unknown
05:39 32 °F 24.8 °F 30.5 in West 5 mph 6.2 mph 75% 0 in 0.00 W/m2 unknown
05:44 32 °F 24.8 °F 30.5 in WSW 5 mph 6.2 mph 75% 0 in 0.00 W/m2 unknown
05:49 32 °F 24.8 °F 30.5 in WSW 5 mph 6.2 mph 76% 0 in 0.00 W/m2 unknown
05:54 32 °F 24.8 °F 30.5 in WSW 5 mph 6.2 mph 76% 0 in 0.00 W/m2 unknown
05:59 32 °F 24.8 °F 30.5 in WSW 3.7 mph 6.2 mph 76% 0 in 0.00 W/m2 unknown
06:04 32 °F 24.8 °F 30.5 in WSW 3.7 mph 6.2 mph 76% 0 in 0.00 W/m2 unknown
06:09 32 °F 24.8 °F 30.5 in WSW 4.3 mph 5 mph 76% 0 in 0.00 W/m2 unknown
06:14 32 °F 24.8 °F 30.5 in West 4.3 mph 5 mph 76% 0 in 0.00 W/m2 unknown
06:19 32 °F 24.8 °F 30.5 in WSW 5 mph 6.2 mph 76% 0 in 5.00 W/m2 unknown
06:24 32 °F 24.8 °F 30.5 in West 5 mph 6.2 mph 76% 0 in 7.00 W/m2 unknown
06:29 32 °F 24.8 °F 30.5 in West 3.7 mph 6.2 mph 76% 0 in 11.00 W/m2 unknown
06:34 32 °F 24.8 °F 30.5 in West 3.7 mph 5 mph 75% 0 in 14.00 W/m2 unknown
06:39 32 °F 24.8 °F 30.5 in West 3.7 mph 5 mph 75% 0 in 16.00 W/m2 unknown
06:44 32 °F 24.8 °F 30.5 in West 4.3 mph 5 mph 75% 0 in 21.00 W/m2 unknown
06:49 32 °F 24.8 °F 30.5 in West 5 mph 5 mph 75% 0 in 28.00 W/m2 unknown
06:54 32 °F 24.8 °F 30.5 in WSW 4.3 mph 5 mph 75% 0 in 35.00 W/m2 unknown
06:59 32 °F 24.8 °F 30.5 in WSW 5 mph 6.8 mph 76% 0 in 44.00 W/m2 unknown
07:04 33.8 °F 26.6 °F 30.5 in WSW 5.6 mph 6.8 mph 76% 0 in 54.00 W/m2 unknown
07:09 33.8 °F 26.6 °F 30.5 in West 5 mph 6.8 mph 75% 0 in 67.00 W/m2 unknown
07:14 35.6 °F 26.6 °F 30.5 in West 5 mph 6.8 mph 74% 0 in 77.00 W/m2 unknown
07:19 35.6 °F 26.6 °F 30.5 in West 3.7 mph 6.8 mph 73% 0 in 91.00 W/m2 unknown
07:24 35.6 °F 28.4 °F 30.5 in West 3.7 mph 5 mph 72% 0 in 107.00 W/m2 unknown
07:29 37.4 °F 28.4 °F 30.5 in West 3.7 mph 5 mph 71% 0 in 123.00 W/m2 unknown
07:34 37.4 °F 28.4 °F 30.5 in West 3.7 mph 5 mph 71% 0 in 139.00 W/m2 unknown
07:39 37.4 °F 28.4 °F 30.5 in WSW 3.1 mph 5 mph 71% 0 in 155.00 W/m2 unknown
07:44 37.4 °F 30.2 °F 30.5 in WSW 5 mph 6.2 mph 71% 0 in 171.00 W/m2 unknown
07:49 39.2 °F 30.2 °F 30.5 in WSW 5 mph 6.2 mph 71% 0 in 183.00 W/m2 unknown
07:54 39.2 °F 30.2 °F 30.5 in WSW 5 mph 6.2 mph 71% 0 in 197.00 W/m2 unknown
07:59 39.2 °F 30.2 °F 30.5 in WSW 3.7 mph 5 mph 71% 0 in 202.00 W/m2 unknown
08:04 41 °F 32 °F 30.5 in WSW 3.7 mph 6.2 mph 70% 0 in 209.00 W/m2 unknown
08:09 41 °F 32 °F 30.5 in West 5 mph 6.2 mph 69% 0 in 239.00 W/m2 unknown
08:14 42.8 °F 32 °F 30.5 in West 5 mph 8.1 mph 68% 0 in 253.00 W/m2 unknown
08:19 42.8 °F 32 °F 30.5 in West 5 mph 8.1 mph 66% 0 in 267.00 W/m2 unknown
08:24 44.6 °F 32 °F 30.5 in West 5.6 mph 6.8 mph 65% 0 in 279.00 W/m2 unknown
08:29 44.6 °F 33.8 °F 30.5 in West 7.5 mph 9.3 mph 64% 0 in 292.00 W/m2 unknown
08:34 44.6 °F 33.8 °F 30.5 in West 6.2 mph 8.7 mph 64% 0 in 306.00 W/m2 unknown
08:39 44.6 °F 33.8 °F 30.5 in West 7.5 mph 10.6 mph 63% 0 in 320.00 W/m2 unknown
08:44 46.4 °F 33.8 °F 30.5 in West 6.2 mph 9.9 mph 62% 0 in 334.00 W/m2 unknown
08:49 46.4 °F 33.8 °F 30.5 in West 6.8 mph 9.3 mph 61% 0 in 350.00 W/m2 unknown
08:54 48.2 °F 35.6 °F 30.5 in West 6.2 mph 8.1 mph 61% 0 in 360.00 W/m2 unknown
08:59 48.2 °F 33.8 °F 30.5 in West 6.8 mph 9.3 mph 59% 0 in 376.00 W/m2 unknown
09:04 48.2 °F 35.6 °F 30.5 in West 5 mph 8.7 mph 59% 0 in 388.00 W/m2 unknown
09:09 50 °F 35.6 °F 30.5 in West 5 mph 6.8 mph 58% 0 in 401.00 W/m2 unknown
09:14 50 °F 35.6 °F 30.5 in West 5 mph 6.8 mph 56% 0 in 415.00 W/m2 unknown
09:19 50 °F 35.6 °F 30.5 in West 7.5 mph 9.3 mph 56% 0 in 429.00 W/m2 unknown
09:24 51.8 °F 33.8 °F 30.5 in WNW 6.2 mph 8.7 mph 53% 0 in 441.00 W/m2 unknown
09:29 51.8 °F 33.8 °F 30.5 in WNW 6.2 mph 8.1 mph 52% 0 in 452.00 W/m2 unknown
09:34 51.8 °F 35.6 °F 30.5 in West 6.2 mph 8.1 mph 52% 0 in 466.00 W/m2 unknown
09:39 51.8 °F 35.6 °F 30.5 in West 6.8 mph 9.3 mph 51% 0 in 478.00 W/m2 unknown
09:44 53.6 °F 35.6 °F 30.5 in West 7.5 mph 11.8 mph 51% 0 in 487.00 W/m2 unknown
09:49 53.6 °F 35.6 °F 30.5 in West 8.1 mph 11.8 mph 51% 0 in 499.00 W/m2 unknown
09:54 53.6 °F 35.6 °F 30.5 in WNW 6.8 mph 11.8 mph 49% 0 in 512.00 W/m2 unknown
09:59 53.6 °F 35.6 °F 30.5 in West 7.5 mph 10.6 mph 48% 0 in 520.00 W/m2 unknown
10:04 55.4 °F 35.6 °F 30.5 in West 8.1 mph 11.8 mph 47% 0 in 531.00 W/m2 unknown
10:09 55.4 °F 35.6 °F 30.5 in West 6.8 mph 11.8 mph 47% 0 in 541.00 W/m2 unknown
10:14 55.4 °F 35.6 °F 30.5 in West 8.7 mph 11.2 mph 47% 0 in 550.00 W/m2 unknown
10:19 55.4 °F 33.8 °F 30.5 in West 8.7 mph 11.8 mph 45% 0 in 559.00 W/m2 unknown
10:24 55.4 °F 33.8 °F 30.5 in West 5.6 mph 11.8 mph 44% 0 in 571.00 W/m2 unknown
10:29 57.2 °F 35.6 °F 30.5 in West 6.2 mph 9.3 mph 45% 0 in 580.00 W/m2 unknown
10:34 57.2 °F 35.6 °F 30.5 in West 6.2 mph 8.7 mph 44% 0 in 587.00 W/m2 unknown
10:39 57.2 °F 35.6 °F 30.5 in West 5 mph 8.1 mph 45% 0 in 594.00 W/m2 unknown
10:44 57.2 °F 35.6 °F 30.5 in WNW 5 mph 8.1 mph 44% 0 in 606.00 W/m2 unknown
10:49 59 °F 35.6 °F 30.5 in West 8.1 mph 13 mph 43% 0 in 615.00 W/m2 unknown
10:54 59 °F 35.6 °F 30.5 in WNW 8.1 mph 13 mph 43% 0 in 622.00 W/m2 unknown
10:59 59 °F 37.4 °F 30.5 in West 5.6 mph 13 mph 44% 0 in 628.00 W/m2 unknown
11:04 59 °F 35.6 °F 30.5 in West 5.6 mph 8.7 mph 41% 0 in 636.00 W/m2 unknown
11:09 59 °F 35.6 °F 30.5 in West 5.6 mph 9.3 mph 41% 0 in 645.00 W/m2 unknown
11:14 59 °F 35.6 °F 30.5 in WNW 6.8 mph 8.7 mph 42% 0 in 647.00 W/m2 unknown
11:19 59 °F 35.6 °F 30.5 in WNW 6.2 mph 8.1 mph 41% 0 in 652.00 W/m2 unknown
11:24 59 °F 35.6 °F 30.5 in WNW 6.2 mph 8.1 mph 40% 0 in 659.00 W/m2 unknown
11:29 60.8 °F 35.6 °F 30.5 in NW 6.2 mph 8.1 mph 39% 0 in 668.00 W/m2 unknown
11:34 60.8 °F 35.6 °F 30.5 in NW 5 mph 6.8 mph 39% 0 in 673.00 W/m2 unknown
11:39 60.8 °F 33.8 °F 30.5 in NW 5 mph 6.8 mph 36% 0 in 677.00 W/m2 unknown
11:44 62.6 °F 35.6 °F 30.5 in NW 5.6 mph 8.1 mph 38% 0 in 679.00 W/m2 unknown
11:49 62.6 °F 35.6 °F 30.5 in NW 5 mph 8.1 mph 36% 0 in 686.00 W/m2 unknown
11:54 62.6 °F 35.6 °F 30.5 in WNW 5 mph 6.8 mph 36% 0 in 687.00 W/m2 unknown
11:59 62.6 °F 33.8 °F 30.5 in West 4.3 mph 6.8 mph 34% 0 in 687.00 W/m2 unknown
12:04 62.6 °F 33.8 °F 30.5 in West 3.1 mph 6.2 mph 35% 0 in 693.00 W/m2 unknown
12:09 62.6 °F 35.6 °F 30.5 in WNW 3.7 mph 6.2 mph 35% 0 in 696.00 W/m2 unknown
12:14 62.6 °F 33.8 °F 30.5 in West 5 mph 6.8 mph 34% 0 in 696.00 W/m2 unknown
12:19 62.6 °F 33.8 °F 30.5 in NNW 5 mph 6.8 mph 34% 0 in 703.00 W/m2 unknown
12:24 62.6 °F 33.8 °F 30.5 in West 8.1 mph 10.6 mph 34% 0 in 700.00 W/m2 unknown
12:29 62.6 °F 33.8 °F 30.5 in West 8.1 mph 10.6 mph 33% 0 in 698.00 W/m2 unknown
12:34 64.4 °F 33.8 °F 30.5 in West 7.5 mph 9.9 mph 33% 0 in 698.00 W/m2 unknown
12:39 64.4 °F 33.8 °F 30.5 in WNW 7.5 mph 10.6 mph 32% 0 in 694.00 W/m2 unknown
12:44 64.4 °F 32 °F 30.5 in West 5 mph 9.9 mph 31% 0 in 700.00 W/m2 unknown
12:49 64.4 °F 32 °F 30.5 in WNW 5 mph 6.8 mph 31% 0 in 700.00 W/m2 unknown
12:54 64.4 °F 32 °F 30.5 in West 7.5 mph 9.3 mph 31% 0 in 698.00 W/m2 unknown
12:59 64.4 °F 32 °F 30.5 in West 7.5 mph 9.3 mph 31% 0 in 694.00 W/m2 unknown
13:04 64.4 °F 33.8 °F 30.5 in West 5 mph 8.7 mph 32% 0 in 698.00 W/m2 unknown
13:09 64.4 °F 32 °F 30.4 in WNW 6.8 mph 9.3 mph 31% 0 in 686.00 W/m2 unknown
13:14 64.4 °F 32 °F 30.4 in NW 5 mph 8.7 mph 28% 0 in 684.00 W/m2 unknown
13:19 64.4 °F 32 °F 30.4 in WNW 3.7 mph 8.1 mph 28% 0 in 684.00 W/m2 unknown
13:24 64.4 °F 32 °F 30.4 in WNW 8.1 mph 11.8 mph 30% 0 in 680.00 W/m2 unknown
13:29 64.4 °F 32 °F 30.4 in West 7.5 mph 11.8 mph 31% 0 in 671.00 W/m2 unknown
13:34 64.4 °F 33.8 °F 30.4 in West 5 mph 8.7 mph 32% 0 in 668.00 W/m2 unknown
13:39 64.4 °F 33.8 °F 30.4 in WSW 7.5 mph 9.3 mph 31% 0 in 664.00 W/m2 unknown
13:44 66.2 °F 33.8 °F 30.4 in WSW 6.8 mph 9.3 mph 30% 0 in 659.00 W/m2 unknown
13:49 66.2 °F 32 °F 30.4 in WSW 6.2 mph 9.3 mph 29% 0 in 656.00 W/m2 unknown
13:54 66.2 °F 32 °F 30.4 in SW 6.2 mph 8.7 mph 29% 0 in 650.00 W/m2 unknown
13:59 66.2 °F 32 °F 30.4 in SW 6.8 mph 8.1 mph 29% 0 in 643.00 W/m2 unknown
14:04 66.2 °F 32 °F 30.4 in West 6.2 mph 8.1 mph 29% 0 in 638.00 W/m2 unknown
14:09 66.2 °F 32 °F 30.4 in West 6.2 mph 8.1 mph 28% 0 in 633.00 W/m2 unknown
14:14 66.2 °F 32 °F 30.4 in West 6.2 mph 8.1 mph 29% 0 in 624.00 W/m2 unknown
14:19 66.2 °F 33.8 °F 30.4 in NW 3.7 mph 5.6 mph 30% 0 in 615.00 W/m2 unknown
14:24 66.2 °F 32 °F 30.4 in WNW 5.6 mph 8.1 mph 28% 0 in 599.00 W/m2 unknown
14:29 66.2 °F 32 °F 30.4 in NW 5 mph 8.1 mph 27% 0 in 598.00 W/m2 unknown
14:34 66.2 °F 32 °F 30.4 in NW 3.1 mph 8.1 mph 27% 0 in 589.00 W/m2 unknown
14:39 66.2 °F 30.2 °F 30.4 in WNW 4.3 mph 6.2 mph 26% 0 in 585.00 W/m2 unknown
14:44 66.2 °F 32 °F 30.4 in North 4.3 mph 6.2 mph 27% 0 in 580.00 W/m2 unknown
14:49 66.2 °F 30.2 °F 30.4 in NE 4.3 mph 6.2 mph 26% 0 in 563.00 W/m2 unknown
14:54 66.2 °F 32 °F 30.4 in NNE 3.1 mph 5 mph 29% 0 in 550.00 W/m2 unknown
14:59 66.2 °F 32 °F 30.4 in West 4.3 mph 6.2 mph 27% 0 in 541.00 W/m2 unknown
15:04 66.2 °F 32 °F 30.4 in WNW 5.6 mph 8.1 mph 27% 0 in 529.00 W/m2 unknown
15:09 66.2 °F 30.2 °F 30.4 in NNE 3.1 mph 8.1 mph 26% 0 in 520.00 W/m2 unknown
15:14 66.2 °F 32 °F 30.4 in WNW 4.3 mph 6.2 mph 27% 0 in 508.00 W/m2 unknown
15:19 66.2 °F 32 °F 30.4 in WSW 4.3 mph 6.2 mph 27% 0 in 499.00 W/m2 unknown
15:24 68 °F 32 °F 30.4 in West 3.7 mph 6.2 mph 27% 0 in 489.00 W/m2 unknown
15:29 66.2 °F 32 °F 30.4 in WSW 5 mph 6.8 mph 27% 0 in 475.00 W/m2 unknown
15:34 66.2 °F 30.2 °F 30.4 in SSW 5 mph 6.8 mph 26% 0 in 461.00 W/m2 unknown
15:39 66.2 °F 30.2 °F 30.4 in SW 5 mph 6.8 mph 26% 0 in 452.00 W/m2 unknown
15:44 68 °F 33.8 °F 30.4 in WSW 5.6 mph 6.2 mph 28% 0 in 436.00 W/m2 unknown
15:49 68 °F 33.8 °F 30.4 in WNW 3.7 mph 6.2 mph 28% 0 in 422.00 W/m2 unknown
15:54 66.2 °F 30.2 °F 30.4 in WSW 3.7 mph 5 mph 26% 0 in 411.00 W/m2 unknown
15:59 66.2 °F 32 °F 30.4 in West 3.7 mph 5.6 mph 27% 0 in 403.00 W/m2 unknown
16:04 66.2 °F 32 °F 30.4 in WSW 4.3 mph 6.2 mph 27% 0 in 390.00 W/m2 unknown
16:09 66.2 °F 32 °F 30.4 in West 3.7 mph 5 mph 27% 0 in 376.00 W/m2 unknown
16:14 66.2 °F 30.2 °F 30.4 in West 3.1 mph 5 mph 26% 0 in 360.00 W/m2 unknown
16:19 68 °F 30.2 °F 30.4 in NW 1.9 mph 3.7 mph 26% 0 in 346.00 W/m2 unknown
16:24 68 °F 32 °F 30.4 in West 3.7 mph 5 mph 27% 0 in 330.00 W/m2 unknown
16:29 66.2 °F 30.2 °F 30.4 in South 2.5 mph 5 mph 26% 0 in 316.00 W/m2 unknown
16:34 66.2 °F 32 °F 30.4 in WSW 3.1 mph 5 mph 27% 0 in 301.00 W/m2 unknown
16:39 66.2 °F 30.2 °F 30.4 in West 1.9 mph 3.7 mph 26% 0 in 288.00 W/m2 unknown
16:44 66.2 °F 30.2 °F 30.4 in WNW 3.7 mph 5 mph 26% 0 in 272.00 W/m2 unknown
16:49 66.2 °F 30.2 °F 30.4 in West 3.1 mph 5 mph 25% 0 in 258.00 W/m2 unknown
16:54 66.2 °F 32 °F 30.4 in West 3.7 mph 5 mph 28% 0 in 244.00 W/m2 unknown
16:59 66.2 °F 30.2 °F 30.4 in WNW 3.1 mph 5 mph 26% 0 in 232.00 W/m2 unknown
17:04 66.2 °F 32 °F 30.4 in NNW 2.5 mph 3.7 mph 27% 0 in 216.00 W/m2 unknown
17:09 66.2 °F 30.2 °F 30.4 in NNW 2.5 mph 3.7 mph 26% 0 in 202.00 W/m2 unknown
17:14 66.2 °F 30.2 °F 30.4 in NW 2.5 mph 3.7 mph 26% 0 in 185.00 W/m2 unknown
17:19 66.2 °F 28.4 °F 30.4 in WNW 2.5 mph 3.7 mph 25% 0 in 167.00 W/m2 unknown
17:24 66.2 °F 28.4 °F 30.4 in North 3.1 mph 3.7 mph 25% 0 in 149.00 W/m2 unknown
17:29 66.2 °F 30.2 °F 30.4 in North 2.5 mph 3.7 mph 27% 0 in 134.00 W/m2 unknown
17:34 66.2 °F 30.2 °F 30.4 in North 1.9 mph 3.7 mph 27% 0 in 120.00 W/m2 unknown
17:39 64.4 °F 32 °F 30.4 in North 2.5 mph 3.7 mph 28% 0 in 42.00 W/m2 unknown
17:44 64.4 °F 30.2 °F 30.4 in North 2.5 mph 3.7 mph 27% 0 in 49.00 W/m2 unknown
17:49 64.4 °F 30.2 °F 30.4 in North 2.5 mph 3.7 mph 27% 0 in 63.00 W/m2 unknown
17:54 64.4 °F 30.2 °F 30.4 in North 1.2 mph 3.1 mph 27% 0 in 60.00 W/m2 unknown
17:59 64.4 °F 30.2 °F 30.4 in North 1.9 mph 2.5 mph 28% 0 in 49.00 W/m2 unknown
18:04 64.4 °F 30.2 °F 30.4 in NNW 1.9 mph 2.5 mph 28% 0 in 39.00 W/m2 unknown
18:09 64.4 °F 30.2 °F 30.4 in NW 1.2 mph 2.5 mph 29% 0 in 32.00 W/m2 unknown
18:14 64.4 °F 30.2 °F 30.4 in NW 1.2 mph 2.5 mph 29% 0 in 23.00 W/m2 unknown
18:19 62.6 °F 32 °F 30.4 in WNW 1.9 mph 3.1 mph 31% 0 in 14.00 W/m2 unknown
18:24 62.6 °F 32 °F 30.4 in WNW 1.9 mph 3.7 mph 32% 0 in 11.00 W/m2 unknown
18:29 60.8 °F 32 °F 30.4 in WNW 1.9 mph 3.1 mph 34% 0 in 7.00 W/m2 unknown
18:34 60.8 °F 32 °F 30.4 in WNW 1.2 mph 2.5 mph 35% 0 in 5.00 W/m2 unknown
18:39 60.8 °F 32 °F 30.4 in West 1.9 mph 2.5 mph 35% 0 in 0.00 W/m2 unknown
18:44 59 °F 32 °F 30.4 in West 1.9 mph 2.5 mph 36% 0 in 0.00 W/m2 unknown
18:49 59 °F 32 °F 30.4 in West 1.9 mph 3.1 mph 36% 0 in 0.00 W/m2 unknown
18:54 59 °F 32 °F 30.4 in West 2.5 mph 3.7 mph 36% 0 in 0.00 W/m2 unknown
18:59 59 °F 32 °F 30.4 in West 2.5 mph 3.7 mph 37% 0 in 0.00 W/m2 unknown
19:04 59 °F 32 °F 30.4 in West 1.9 mph 3.1 mph 38% 0 in 0.00 W/m2 unknown
19:09 57.2 °F 32 °F 30.4 in West 1.9 mph 2.5 mph 38% 0 in 0.00 W/m2 unknown
19:14 57.2 °F 30.2 °F 30.4 in West 1.9 mph 3.7 mph 37% 0 in 0.00 W/m2 unknown
19:19 57.2 °F 30.2 °F 30.4 in West 2.5 mph 3.7 mph 37% 0 in 0.00 W/m2 unknown
19:24 55.4 °F 30.2 °F 30.4 in WSW 2.5 mph 3.7 mph 37% 0 in 0.00 W/m2 unknown
19:29 55.4 °F 30.2 °F 30.4 in WSW 2.5 mph 3.7 mph 38% 0 in 0.00 W/m2 unknown
19:34 55.4 °F 30.2 °F 30.4 in WSW 2.5 mph 3.7 mph 38% 0 in 0.00 W/m2 unknown
19:39 55.4 °F 30.2 °F 30.4 in WSW 2.5 mph 3.7 mph 38% 0 in 0.00 W/m2 unknown
19:44 55.4 °F 30.2 °F 30.4 in West 3.1 mph 3.7 mph 38% 0 in 0.00 W/m2 unknown
19:49 55.4 °F 30.2 °F 30.4 in West 3.1 mph 3.7 mph 39% 0 in 0.00 W/m2 unknown
19:54 53.6 °F 30.2 °F 30.4 in West 2.5 mph 3.7 mph 40% 0 in 0.00 W/m2 unknown
19:59 53.6 °F 30.2 °F 30.4 in West 2.5 mph 3.7 mph 42% 0 in 0.00 W/m2 unknown
20:04 51.8 °F 30.2 °F 30.4 in West 2.5 mph 3.7 mph 42% 0 in 0.00 W/m2 unknown
20:09 51.8 °F 30.2 °F 30.4 in West 2.5 mph 3.7 mph 43% 0 in 0.00 W/m2 unknown
20:14 51.8 °F 30.2 °F 30.4 in West 2.5 mph 3.7 mph 43% 0 in 0.00 W/m2 unknown
20:19 51.8 °F 30.2 °F 30.4 in West 2.5 mph 3.7 mph 45% 0 in 0.00 W/m2 unknown
20:24 50 °F 30.2 °F 30.4 in West 2.5 mph 3.7 mph 45% 0 in 0.00 W/m2 unknown
20:29 50 °F 30.2 °F 30.4 in West 2.5 mph 3.7 mph 46% 0 in 0.00 W/m2 unknown
20:34 50 °F 30.2 °F 30.4 in West 2.5 mph 3.7 mph 46% 0 in 0.00 W/m2 unknown
20:39 50 °F 30.2 °F 30.4 in West 2.5 mph 3.7 mph 47% 0 in 0.00 W/m2 unknown
20:44 50 °F 30.2 °F 30.4 in West 2.5 mph 3.7 mph 48% 0 in 0.00 W/m2 unknown
20:49 50 °F 32 °F 30.4 in WNW 1.9 mph 3.7 mph 49% 0 in 0.00 W/m2 unknown
20:54 50 °F 32 °F 30.4 in West 1.9 mph 3.7 mph 50% 0 in 0.00 W/m2 unknown
20:59 48.2 °F 32 °F 30.4 in West 1.9 mph 3.1 mph 51% 0 in 0.00 W/m2 unknown
21:04 48.2 °F 32 °F 30.4 in West 1.9 mph 2.5 mph 52% 0 in 0.00 W/m2 unknown
21:09 48.2 °F 32 °F 30.4 in West 1.2 mph 2.5 mph 53% 0 in 0.00 W/m2 unknown
21:14 48.2 °F 32 °F 30.4 in West 1.2 mph 1.9 mph 54% 0 in 0.00 W/m2 unknown
21:19 48.2 °F 32 °F 30.4 in Calm   1.2 mph 54% 0 in 0.00 W/m2 unknown
21:24 48.2 °F 32 °F 30.4 in Calm     54% 0 in 0.00 W/m2 unknown
21:29 46.4 °F 30.2 °F 30.4 in West 1.9 mph 2.5 mph 53% 0 in 0.00 W/m2 unknown
21:34 46.4 °F 30.2 °F 30.4 in West 1.2 mph 2.5 mph 53% 0 in 0.00 W/m2 unknown
21:39 46.4 °F 30.2 °F 30.4 in SW 3.1 mph 3.7 mph 53% 0 in 0.00 W/m2 unknown
21:44 46.4 °F 30.2 °F 30.4 in SW 3.7 mph 3.7 mph 53% 0 in 0.00 W/m2 unknown
21:49 46.4 °F 30.2 °F 30.4 in SW 3.7 mph 3.7 mph 51% 0 in 0.00 W/m2 unknown
21:54 46.4 °F 30.2 °F 30.4 in SW 2.5 mph 3.7 mph 52% 0 in 0.00 W/m2 unknown
21:59 46.4 °F 30.2 °F 30.4 in SW 2.5 mph 3.7 mph 52% 0 in 0.00 W/m2 unknown
22:04 46.4 °F 30.2 °F 30.4 in SW 1.9 mph 3.1 mph 52% 0 in 0.00 W/m2 unknown
22:09 46.4 °F 30.2 °F 30.4 in West 2.5 mph 3.7 mph 53% 0 in 0.00 W/m2 unknown
22:14 46.4 °F 30.2 °F 30.4 in West 2.5 mph 3.7 mph 53% 0 in 0.00 W/m2 unknown
22:19 46.4 °F 30.2 °F 30.4 in West 1.9 mph 3.7 mph 53% 0 in 0.00 W/m2 unknown
22:24 46.4 °F 30.2 °F 30.4 in West 2.5 mph 3.7 mph 53% 0 in 0.00 W/m2 unknown
22:29 46.4 °F 30.2 °F 30.4 in West 1.9 mph 3.7 mph 54% 0 in 0.00 W/m2 unknown
22:34 44.6 °F 30.2 °F 30.4 in West 1.9 mph 3.1 mph 56% 0 in 0.00 W/m2 unknown
22:39 44.6 °F 30.2 °F 30.4 in WNW 1.2 mph 2.5 mph 56% 0 in 0.00 W/m2 unknown
22:44 44.6 °F 30.2 °F 30.4 in WNW 1.2 mph 2.5 mph 57% 0 in 0.00 W/m2 unknown
22:49 44.6 °F 30.2 °F 30.4 in WNW 1.9 mph 3.7 mph 57% 0 in 0.00 W/m2 unknown
22:54 44.6 °F 30.2 °F 30.4 in WNW 1.9 mph 3.7 mph 57% 0 in 0.00 W/m2 unknown
22:59 44.6 °F 30.2 °F 30.4 in WNW 3.1 mph 3.7 mph 57% 0 in 0.00 W/m2 unknown
23:04 44.6 °F 30.2 °F 30.4 in WNW 3.1 mph 3.7 mph 57% 0 in 0.00 W/m2 unknown
23:09 44.6 °F 30.2 °F 30.4 in WNW 1.9 mph 3.1 mph 57% 0 in 0.00 W/m2 unknown
23:14 44.6 °F 30.2 °F 30.4 in WNW 1.2 mph 2.5 mph 57% 0 in 0.00 W/m2 unknown
23:19 44.6 °F 30.2 °F 30.4 in WNW 1.2 mph 2.5 mph 58% 0 in 0.00 W/m2 unknown
23:24 44.6 °F 30.2 °F 30.4 in WNW 1.9 mph 3.7 mph 58% 0 in 0.00 W/m2 unknown
23:29 44.6 °F 30.2 °F 30.4 in WNW 1.9 mph 3.1 mph 57% 0 in 0.00 W/m2 unknown
23:34 42.8 °F 28.4 °F 30.4 in WNW 2.5 mph 3.7 mph 58% 0 in 0.00 W/m2 unknown
23:39 42.8 °F 28.4 °F 30.4 in WSW 3.1 mph 3.7 mph 58% 0 in 0.00 W/m2 unknown
23:44 42.8 °F 28.4 °F 30.4 in West 2.5 mph 3.7 mph 59% 0 in 0.00 W/m2 unknown
23:49 42.8 °F 30.2 °F 30.4 in West 1.2 mph 3.1 mph 61% 0 in 0.00 W/m2 unknown
23:54 42.8 °F 30.2 °F 30.4 in WSW 2.5 mph 3.7 mph 60% 0 in 0.00 W/m2 unknown
23:59 42.8 °F 28.4 °F 30.4 in WSW 2.5 mph 3.7 mph 59% 0 in 0.00 W/m2 unknown
Stazione Meteorologica MeteoMincio Rivalta s/M (MN)
Con i complimenti di Weather Underground - 4 mb



METEO PILLOLE
L'uragano più violento
Galveston - Texas
Nel 1900 un uragano spazza l'isola con venti oltre 160 Km/h e provoca un onda alta oltre 6 m. Si valuta che siano morte 8000 persone.
Share

Non seguire questo link o sarai bannato dal sito!